METEOR 2-7 DEB, 36878

Orbit data source: Space-Track

METEOR 2-7 DEB, 36878 is space debris in LEO originally from a launch on Thu, 14 May 1981 UTC launched from the Plesetsk Missile And Space Complex (PKMTR). Debris objects in space refer to the collection of defunct objects orbiting the Earth. Examples of debris include non-operational satellites, rocket bodies, and fragments generated from explosions, collisions, or faulty payload assembly.

Loading next visibility...
Identifier
36878, 1981-043R
Orbit
LEO
Country
Flag of CISCIS
Related business
Manufacturer
Unknown
Mission
Spacecraft
Bus & Motor
Unknown
Mass
Unknown
Launch date (UTC)
1981-05-14 (45 years ago)
Launch vehicle
Unknown
Launch site
Plesetsk Missile And Space Complex (PKMTR)
Object type
Payload
Rocket body
Debris
Shape & HBR
Unknown shape, 0.1 m
Radar Cross Section
Small (<0.1 m²)

Expand to show TLE details & history
Last TLE update: 18 hours ago

TLE from 18 hours ago
0 METEOR 2-7 DEB
1 36878U 81043R   25340.79072834  .00022685  00000-0  55268-2 0  9993
2 36878  81.2504 168.8353 0028047   2.6198  13.1251 14.52368596643246
Epoch: 2025-12-06T18:58Z
TLE epoch observation values (Epoch: 2025-12-06T18:58:38.928Z)
Latitude
15.60816°
Longitude
170.81064°
Altitude
700.81 km
Speed
7.517 km/s
True Right ascension
11h 25m 08s
True Declination
15° 31' 07"
Sunlit
Object was in daylight at epoch
Visualization orbit readout
Latitude
Unknown
Longitude
Unknown
Altitude
Unknown
Speed
Unknown
Apparent Right ascension
Unknown
Apparent Declination
Unknown
Sunlit
N/A
Visualization observer readout
Local Sidereal Time
11:01:06
Azimuth
Unknown
Elevation
Unknown
Doppler factor
Unknown
Orbital elements
Apogee altitude
734.935 km
Perigee altitude
695.146 km
Semi-major axis
7,093.177 km
Eccentricity
0.0028
Inclination
81.2504°
RAAN
168.8353°
Arg. of periapsis
2.6198°
True anomaly
13.19833°
Mean anomaly
13.1251°
Eccentric anomaly
13.16169°
Mean motion
3.63314 °/min
Orbital period
99.09 mins
BSTAR
0.0055268
Loading maneuver chart data...
Computing Atmospheric mass density...
Loading historical data...
Loading historical data...
Loading historical data...
Loading historical data...
Loading historical data...
Loading historical data...
Loading historical data...

Documentation

Showing up to 5 results
|